STARLINK-11081, 60405

Orbit data source: Space-Track

STARLINK-11081, 60405 is a payload satellite owned by SpaceX/Seattle (US) in LEO that was launched on Sat, 10 Aug 2024 UTC via an FALCON 9 launch vehicle from the Air Force Eastern Test Range (AFETR). Payloads include a variety of satellites, spacecraft, and rockets equipped with specific instruments for various scientific and technological missions. These include communications satellites like Starlink; space stations such as the ISS; scientific satellites like the Hubble; Earth observation satellites from companies like Planet Labs, Umbra, and HawkEye 360; GPS; miniature CubeSats for education and research; and military/defense satellites.

Loading next visibility...
STARLINK-11081 details
Identifier
60405, 2024-141H
Orbit
LEO
Last TLE update15 hours ago
Origin
Flag of USSpaceX/Seattle (US)
ManufacturerSpaceX/Seattle
MissionOperational spacecraft
Bus & MotorSTARLINK V2M, Unknown motor
Mass730 kg wet, ~700 kg dry
Launch date (UTC)
2024-08-10 (5 months ago)
Launch vehicle
FALCON 9
Launch site
Air Force Eastern Test Range (AFETR)
Object type
Payload
Rocket body
Debris
Shape & HBRUnknown
Radar Cross SectionLarge (>1 m²)

Expand to show TLE details & history

TLE from 15 hours ago
0 STARLINK-11081
1 60405U 24141H   25014.64382379  .00000155  00000-0  61425-5 0  9995
2 60405  53.1594 352.2479 0001388  78.5367 281.5807 15.69714950 25872
Epoch: 2025-01-14T15:27Z
Definitive object data (Epoch: 2025-01-14T15:27:06.375Z)
Latitude
Longitude6.12377°
Altitude360.44 km
Speed7.694 km/s
True Right ascension23h 28m 59s
True Declination0° 00' 00"
Sunlit
Object was in daylight at TLE epoch
Visualization TLE readout
Latitude-5.42385°
Longitude-1.06622°
Altitude361.443 km
Speed7.693 km/s
Apparent Right ascension21h 29m 22s
Apparent Declination-24° 26' 53"
Sunlit
Object is in daylight
Visualization observer readout
Local Sidereal Time07:21:38
Azimuth290.322° WNW
Elevation-59.107°
Doppler factor1
Orbital elements
Apogee altitude360.909 km
Perigee altitude359.038 km
Semi-major axis6,738.11 km
Eccentricity0.0001388
Inclination53.1594°
RAAN352.2479°
Arg. of periapsis78.5367°
True anomaly281.56512°
Mean anomaly281.5807°
Eccentric anomaly281.57291°
Mean motion3.92406 °/min
BSTAR0.0000061425
Orbital period91.74 mins
Loading maneuver chart data...
Loading historical data...
Loading historical data...
Loading historical data...
Loading historical data...
Loading historical data...
Loading historical data...
Loading historical data...

STARLINK-11081 Visibility forecast

Observer location: undefined°, undefined

Span
Click to sort rows by Start time (UTC) header in descending order
Start Az.
Max El. time (UTC)
Max El. Az.
Max El.
End time (UTC)
End Az.
4 mins2025-01-15 07:12:13.348Z334.842° NNW2025-01-15 07:14:13.348Z27.984° NE25.498°2025-01-15 07:16:13.348Z86.81° E
4 mins2025-01-16 01:17:13.348Z261.914° W2025-01-16 01:18:13.348Z295.503° NW33.864°2025-01-16 01:21:13.348Z38.018° NE
|